TimeCDT,TemperatureF,Dew PointF,Humidity,Sea Level PressureIn,VisibilityMPH,Wind Direction,Wind SpeedMPH,Gust SpeedMPH,PrecipitationIn,Events,Conditions,WindDirDegrees,DateUTC
12:52 AM,42.1,25.0,51,30.10,10.0,Calm,Calm,-,N/A,,Clear,0,2012-09-24 05:52:00
1:52 AM,39.0,25.0,57,30.09,6.0,Calm,Calm,-,N/A,,Haze,0,2012-09-24 06:52:00
2:52 AM,37.9,25.0,60,30.08,10.0,NE,5.8,-,N/A,,Clear,50,2012-09-24 07:52:00
3:52 AM,37.0,25.0,62,30.04,10.0,Calm,Calm,-,N/A,,Clear,0,2012-09-24 08:52:00
4:52 AM,36.0,24.1,62,30.02,10.0,Calm,Calm,-,N/A,,Clear,0,2012-09-24 09:52:00
5:52 AM,30.9,21.9,69,30.01,10.0,Calm,Calm,-,N/A,,Clear,0,2012-09-24 10:52:00
6:52 AM,30.9,23.0,72,30.01,10.0,Calm,Calm,-,N/A,,Clear,0,2012-09-24 11:52:00
7:52 AM,33.1,24.1,70,30.01,10.0,Calm,Calm,-,N/A,,Clear,0,2012-09-24 12:52:00
8:52 AM,45.0,28.0,52,29.98,10.0,Calm,Calm,-,N/A,,Clear,0,2012-09-24 13:52:00
9:52 AM,52.0,28.9,41,29.98,10.0,West,3.5,-,N/A,,Clear,280,2012-09-24 14:52:00
10:52 AM,63.0,30.9,30,29.95,10.0,WNW,4.6,-,N/A,,Clear,290,2012-09-24 15:52:00
11:52 AM,71.6,32.0,23,29.92,10.0,WNW,3.5,-,N/A,,Clear,300,2012-09-24 16:52:00
12:52 PM,79.0,30.9,17,29.89,10.0,WNW,9.2,-,N/A,,Clear,300,2012-09-24 17:52:00
1:52 PM,82.0,32.0,16,29.86,10.0,NW,9.2,-,N/A,,Clear,310,2012-09-24 18:52:00
2:52 PM,84.0,32.0,15,29.83,10.0,NW,13.8,18.4,N/A,,Clear,310,2012-09-24 19:52:00
3:52 PM,84.9,32.0,15,29.81,10.0,WNW,13.8,-,N/A,,Clear,300,2012-09-24 20:52:00
4:52 PM,84.0,32.0,15,29.81,10.0,NNW,16.1,23.0,N/A,,Clear,330,2012-09-24 21:52:00
5:52 PM,81.0,33.1,18,29.82,10.0,NNW,11.5,-,N/A,,Clear,340,2012-09-24 22:52:00
6:52 PM,78.1,35.1,21,29.82,10.0,NNW,8.1,-,N/A,,Clear,340,2012-09-24 23:52:00
7:52 PM,70.0,36.0,29,29.83,10.0,North,4.6,-,N/A,,Clear,10,2012-09-25 00:52:00
8:52 PM,68.0,37.0,32,29.84,10.0,NNE,8.1,-,N/A,,Clear,30,2012-09-25 01:52:00
9:52 PM,57.0,37.9,49,29.86,10.0,ENE,5.8,-,N/A,,Clear,70,2012-09-25 02:52:00
10:52 PM,50.0,37.0,61,29.87,10.0,ENE,5.8,-,N/A,,Clear,70,2012-09-25 03:52:00
11:52 PM,54.0,41.0,62,29.88,10.0,ENE,8.1,-,N/A,,Clear,70,2012-09-25 04:52:00